Latest Weather Observations for Woomera

IDS60801

Issued at 5:35 pm CST Thursday 24 April 2014 (issued every 30 minutes, with the page automatically refreshed every 10 minutes)

About weather observations | Map of weather stations | Latest weather observations for SA | Other Formats
Station Details ID: 016001 Name: WOOMERA AERODROME Lat: -31.16 Lon: 136.81 Height: 166.6 m
Data from the previous 72 hours. | See also: Recent months at Woomera
Date/Time
CST
Temp
°C
App
Temp
°C
Dew
Point
Rel
Hum
%
Delta-T
°C
Wind Press
QNH
hPa
Press
MSL
hPa
Rain
since 9 am
mm
Dir
 
Spd
km/h
Gust
km/h
Spd
kts
Gust
kts
24/05:30pm 21.7 17.9 7.5 40 7.4 SSE 17 24 9 13 1016.2 - 0.0
24/05:00pm 22.2 18.3 7.2 38 7.8 SSE 17 24 9 13 1016.1 - 0.0
24/04:30pm 22.6 18.4 7.3 37 8.0 SSE 19 24 10 13 1015.9 - 0.0
24/04:00pm 22.6 18.2 7.3 37 8.0 SSE 20 30 11 16 1016.0 - 0.0
24/03:30pm 22.9 18.4 6.9 35 8.3 SSE 20 30 11 16 1015.9 - 0.0
24/03:00pm 23.4 18.4 6.6 34 8.7 SE 22 30 12 16 1016.0 1015.6 0.0
24/02:30pm 23.0 18.5 7.1 36 8.3 SE 20 28 11 15 1016.0 - 0.0
24/02:00pm 22.2 17.9 7.7 39 7.6 SE 20 32 11 17 1016.2 - 0.0
24/01:30pm 22.0 17.9 7.9 40 7.4 SE 19 28 10 15 1016.6 - 0.0
24/01:00pm 21.7 17.4 7.7 40 7.3 SE 20 28 11 15 1017.1 - 0.0
24/12:30pm 20.8 16.5 8.0 43 6.7 SE 20 30 11 16 1017.7 - 0.0
24/12:00pm 20.0 15.2 7.3 43 6.5 SSE 22 32 12 17 1018.2 1017.8 0.0
24/11:30am 19.8 15.2 8.1 46 6.1 S 22 30 12 16 1018.5 - 0.0
24/11:00am 19.2 13.9 8.5 50 5.6 SSE 26 32 14 17 1018.8 - 0.0
24/10:30am 18.5 13.7 9.0 54 5.0 SSE 24 32 13 17 1019.1 - 0.0
24/10:00am 17.6 13.0 9.7 60 4.2 SSE 24 33 13 18 1019.2 - 0.0
24/09:30am 16.6 12.5 10.0 65 3.5 S 22 30 12 16 1019.5 - 0.0
24/09:00am 15.6 11.6 10.3 70 2.8 S 22 26 12 14 1019.4 1019.0 0.0
24/08:30am 14.7 10.3 10.3 75 2.3 S 24 30 13 16 1019.1 - 0.0
24/08:00am 13.8 10.5 9.7 76 2.1 S 17 22 9 12 1018.6 - 0.0
24/07:30am 12.6 9.9 8.8 77 1.9 S 13 17 7 9 1018.5 - 0.0
24/07:00am 11.7 8.9 8.5 81 1.6 S 13 17 7 9 1018.3 - 0.0
24/06:30am 12.2 9.0 8.6 78 1.8 S 15 19 8 10 1018.0 - 0.0
24/06:00am 12.5 8.6 8.5 76 2.0 S 19 22 10 12 1017.7 1017.3 0.0
24/05:30am 12.6 8.5 8.0 73 2.3 S 19 22 10 12 1017.2 - 0.0
24/05:00am 13.0 8.8 7.5 69 2.7 S 19 24 10 13 1017.1 - 0.0
24/04:30am 13.3 8.9 7.6 68 2.8 S 20 24 11 13 1016.8 - 0.0
24/04:00am 13.5 9.1 7.4 66 3.0 S 20 26 11 14 1016.7 - 0.0
24/03:30am 13.8 8.9 7.1 64 3.3 S 22 28 12 15 1016.7 - 0.0
24/03:00am 14.2 9.2 6.6 60 3.7 S 22 30 12 16 1016.9 1016.5 0.0
24/02:30am 14.5 9.1 6.5 58 3.9 S 24 32 13 17 1016.8 - 0.0
24/02:00am 14.6 10.1 6.9 60 3.8 S 20 24 11 13 1017.0 - 0.0
24/01:30am 15.0 10.6 6.4 56 4.2 SSW 19 24 10 13 1017.0 - 0.0
24/01:00am 14.7 10.9 6.0 56 4.2 SW 15 20 8 11 1016.9 - 0.0
24/12:30am 13.5 10.6 6.7 63 3.3 WSW 11 13 6 7 1016.6 - 0.0
24/12:00am 14.0 11.5 6.6 61 3.6 W 9 11 5 6 1016.7 1016.3 0.0
 
Date/Time
CST
Temp
°C
App
Temp
°C
Dew
Point
Rel
Hum
%
Delta-T
°C
Wind Press
QNH
hPa
Press
MSL
hPa
Rain
since 9 am
mm
Dir
 
Spd
km/h
Gust
km/h
Spd
kts
Gust
kts
23/11:30pm 14.6 12.2 6.9 60 3.8 W 9 11 5 6 1016.7 - 0.0
23/11:00pm 15.0 13.0 6.9 58 4.0 WSW 7 9 4 5 1016.8 - 0.0
23/10:30pm 15.4 12.9 6.4 55 4.4 WSW 9 11 5 6 1017.0 - 0.0
23/10:00pm 15.5 13.0 6.5 55 4.4 W 9 11 5 6 1017.1 - 0.0
23/09:30pm 16.0 13.0 5.9 51 4.9 W 11 13 6 7 1017.0 - 0.0
23/09:00pm 16.5 13.3 5.3 47 5.4 W 11 13 6 7 1016.8 1016.4 0.0
23/08:30pm 16.8 13.6 5.2 46 5.6 W 11 11 6 6 1016.6 - 0.0
23/08:00pm 17.1 14.7 5.1 45 5.8 W 7 9 4 5 1016.4 - 0.0
23/07:30pm 17.7 14.4 4.8 42 6.2 SW 11 13 6 7 1016.1 - 0.0
23/07:00pm 18.4 14.7 4.5 40 6.7 WSW 13 15 7 8 1015.9 - 0.0
23/06:30pm 19.2 15.3 3.6 35 7.4 SW 13 15 7 8 1015.8 - 0.0
23/06:00pm 20.4 16.0 2.5 30 8.4 SSW 15 19 8 10 1015.5 1015.1 0.0
23/05:30pm 21.5 16.7 2.5 28 9.0 SW 17 20 9 11 1015.1 - 0.0
23/05:00pm 22.1 17.2 1.9 26 9.5 SW 17 22 9 12 1014.9 - 0.0
23/04:30pm 22.8 17.6 2.2 26 9.8 SSW 19 35 10 19 1014.9 - 0.0
23/04:00pm 22.7 17.6 3.0 27 9.5 SSW 19 28 10 15 1015.0 - 0.0
23/03:30pm 22.8 17.8 3.5 28 9.4 SSW 19 26 10 14 1015.0 - 0.0
23/03:00pm 22.4 18.6 5.6 33 8.5 SW 15 24 8 13 1015.0 1014.6 0.0
23/02:30pm 22.1 16.3 4.5 31 8.7 SW 24 35 13 19 1015.2 - 0.0
23/02:00pm 22.0 17.2 4.6 32 8.6 SSW 19 30 10 16 1015.3 - 0.0
23/01:30pm 22.2 16.3 4.0 30 8.9 SSW 24 33 13 18 1015.5 - 0.0
23/01:00pm 22.4 16.7 4.7 31 8.8 SSW 24 33 13 18 1015.7 - 0.0
23/12:30pm 22.2 16.7 2.1 26 9.5 SSW 20 30 11 16 1016.3 - 0.0
23/12:00pm 21.7 16.4 2.8 28 9.0 S 20 28 11 15 1016.6 1016.2 0.0
23/11:30am 21.0 15.5 1.9 28 8.9 S 20 28 11 15 1017.1 - 0.0
23/11:00am 20.4 14.9 3.8 33 8.0 S 22 32 12 17 1017.4 - 0.0
23/10:30am 19.9 15.2 5.0 37 7.3 S 19 24 10 13 1017.8 - 0.0
23/10:00am 18.9 14.3 5.5 41 6.6 S 19 22 10 12 1018.0 - 0.0
23/09:30am 17.6 13.3 6.8 49 5.4 S 19 24 10 13 1018.2 - 0.0
23/09:00am 16.6 12.6 6.5 51 5.0 S 17 20 9 11 1018.2 1017.8 0.0
23/08:30am 15.1 10.6 7.0 58 4.0 S 20 22 11 12 1017.8 - 0.0
23/08:00am 13.8 10.1 7.8 67 3.0 SSW 17 20 9 11 1017.4 - 0.0
23/07:30am 12.4 8.8 8.4 76 2.0 SSW 17 20 9 11 1017.2 - 0.0
23/07:00am 11.8 8.2 8.2 78 1.8 S 17 20 9 11 1016.9 - 0.0
23/06:30am 11.7 8.8 8.0 78 1.8 SSW 13 17 7 9 1016.8 - 0.0
23/06:00am 12.1 10.2 7.4 73 2.3 SSW 7 11 4 6 1016.8 1016.4 0.0
23/05:30am 12.5 10.8 7.6 72 2.4 SW 6 9 3 5 1016.8 - 0.0
23/05:00am 12.5 9.9 7.8 73 2.3 SSW 11 13 6 7 1016.6 - 0.0
23/04:30am 13.1 10.1 7.6 69 2.7 S 13 17 7 9 1016.6 - 0.0
23/04:00am 13.6 9.9 7.8 68 2.9 SSE 17 20 9 11 1016.4 - 0.0
23/03:30am 13.8 9.8 8.4 70 2.7 S 19 24 10 13 1016.6 - 0.0
23/03:00am 14.0 10.1 8.7 70 2.7 S 19 26 10 14 1016.7 1016.3 0.0
23/02:30am 14.1 10.2 8.8 70 2.7 S 19 28 10 15 1016.9 - 0.0
23/02:00am 14.2 10.1 8.5 68 2.9 S 20 24 11 13 1017.1 - 0.0
23/01:30am 14.6 9.9 7.6 63 3.5 S 22 28 12 15 1017.3 - 0.0
23/01:00am 14.9 10.5 6.7 58 4.0 S 19 24 10 13 1017.5 - 0.0
23/12:30am 15.4 10.1 6.6 55 4.3 S 24 30 13 16 1017.5 - 0.0
23/12:00am 16.0 10.4 5.4 49 5.1 SSE 24 32 13 17 1017.5 1017.1 0.0
 
Date/Time
CST
Temp
°C
App
Temp
°C
Dew
Point
Rel
Hum
%
Delta-T
°C
Wind Press
QNH
hPa
Press
MSL
hPa
Rain
since 9 am
mm
Dir
 
Spd
km/h
Gust
km/h
Spd
kts
Gust
kts
22/11:30pm 16.5 11.9 6.6 52 4.9 SSE 20 28 11 15 1017.8 - 0.0
22/11:00pm 16.9 12.4 7.1 52 4.9 S 20 30 11 16 1017.7 - 0.0
22/10:30pm 17.2 12.9 7.0 51 5.1 S 19 24 10 13 1017.5 - 0.0
22/10:00pm 17.6 13.0 6.3 47 5.6 SSE 20 28 11 15 1017.4 - 0.0
22/09:30pm 18.1 13.3 5.7 44 6.1 SSE 20 28 11 15 1017.3 - 0.0
22/09:00pm 18.6 13.3 4.8 40 6.7 SSE 22 30 12 16 1017.4 1017.0 0.0
22/08:30pm 18.9 13.5 4.4 38 7.0 SSE 22 30 12 16 1017.2 - 0.0
22/08:00pm 19.5 12.7 3.2 34 7.7 SSE 28 37 15 20 1016.9 - 0.0
22/07:30pm 20.0 13.9 2.8 32 8.1 SSE 24 35 13 19 1016.6 - 0.0
22/07:00pm 20.6 13.4 2.9 31 8.4 S 30 39 16 21 1016.0 - 0.0
22/06:30pm 21.3 15.9 8.2 43 6.9 S 26 37 14 20 1015.6 - 0.0
22/06:00pm 22.5 18.0 9.9 44 6.9 S 24 33 13 18 1015.2 1014.8 0.0
22/05:30pm 23.4 18.2 10.4 43 7.2 S 28 35 15 19 1014.8 - 0.0
22/05:00pm 24.2 19.2 10.8 43 7.5 SSW 28 37 15 20 1014.5 - 0.0
22/04:30pm 25.5 20.6 9.8 37 8.7 SSW 26 33 14 18 1014.4 - 0.0
22/04:00pm 25.5 21.9 9.8 37 8.7 SSW 19 30 10 16 1014.5 - 0.0
22/03:30pm 25.8 22.5 9.5 35 9.0 SSW 17 20 9 11 1014.5 - 0.0
22/03:00pm 25.7 21.8 9.4 35 9.0 SSW 20 28 11 15 1014.5 1014.1 0.0
22/02:30pm 25.5 21.8 9.6 36 8.8 SSW 19 32 10 17 1014.4 - 0.0
22/02:00pm 25.3 22.1 9.8 37 8.6 S 17 24 9 13 1014.4 - 0.0
22/01:30pm 25.2 22.0 8.6 35 9.0 SSW 15 20 8 11 1014.8 - 0.0
22/01:00pm 24.7 21.2 7.3 33 9.2 SW 15 22 8 12 1015.2 - 0.0
22/12:30pm 23.8 20.1 7.8 36 8.5 SW 17 26 9 14 1015.7 - 0.0
22/12:00pm 23.8 20.6 8.5 37 8.2 SW 15 22 8 12 1015.9 1015.5 0.0
22/11:30am 22.9 20.0 9.5 42 7.3 SSW 15 20 8 11 1016.1 - 0.0
22/11:00am 22.8 20.8 8.8 40 7.5 SW 9 17 5 9 1016.2 - 0.0
22/10:30am 22.1 20.6 9.1 43 7.0 SW 7 11 4 6 1016.4 - 0.0
22/10:00am 21.4 20.1 9.8 47 6.3 SSW 7 11 4 6 1016.5 - 0.0
22/09:30am 20.0 18.2 9.3 50 5.7 S 9 13 5 7 1016.6 - 0.0
22/09:00am 19.1 16.7 8.6 50 5.5 SSW 11 15 6 8 1016.5 1016.1 0.0
22/08:30am 18.6 15.3 4.8 40 6.7 WSW 11 15 6 8 1016.4 - 0.0
22/08:00am 18.4 15.9 4.7 40 6.6 WNW 7 9 4 5 1016.0 - 0.0
22/07:30am 17.3 14.6 5.4 45 5.8 WNW 9 9 5 5 1015.8 - 0.0
22/07:00am 16.9 14.3 4.2 43 6.0 W 7 9 4 5 1015.6 - 0.0
22/06:30am 16.3 13.8 4.5 45 5.6 WNW 7 9 4 5 1015.3 - 0.0
22/06:00am 16.2 13.7 4.9 47 5.4 W 7 9 4 5 1015.0 1014.6 0.0
22/05:30am 15.6 12.4 4.9 49 5.1 W 11 11 6 6 1014.9 - 0.0
22/05:00am 16.1 12.4 4.2 45 5.6 W 13 17 7 9 1014.9 - 0.0
22/04:30am 17.8 12.7 3.3 38 6.8 N 19 22 10 12 1014.1 - 0.0
22/04:00am 18.1 12.8 3.1 36 7.0 N 20 24 11 13 1013.8 - 0.0
22/03:30am 18.8 13.5 3.0 35 7.4 N 20 24 11 13 1013.6 - 0.0
22/03:00am 19.1 13.8 3.2 34 7.5 N 20 24 11 13 1013.7 1013.3 0.0
22/02:30am 19.1 14.1 3.5 35 7.4 N 19 22 10 12 1013.8 - 0.0
22/02:00am 19.7 14.5 3.6 34 7.7 N 20 26 11 14 1013.7 - 0.0
22/01:30am 20.3 15.1 3.6 33 8.0 N 20 26 11 14 1013.9 - 0.0
22/01:00am 20.9 15.3 3.7 32 8.3 N 22 28 12 15 1014.0 - 0.0
22/12:30am 21.1 15.2 4.0 32 8.3 N 24 30 13 16 1014.0 - 0.0
22/12:00am 21.4 15.5 3.9 31 8.5 N 24 32 13 17 1014.2 1013.8 0.0
 
Date/Time
CST
Temp
°C
App
Temp
°C
Dew
Point
Rel
Hum
%
Delta-T
°C
Wind Press
QNH
hPa
Press
MSL
hPa
Rain
since 9 am
mm
Dir
 
Spd
km/h
Gust
km/h
Spd
kts
Gust
kts
21/11:30pm 21.5 15.6 3.8 31 8.6 N 24 30 13 16 1014.3 - 0.0
21/11:00pm 20.7 15.5 3.4 32 8.3 N 20 26 11 14 1014.5 - 0.0
21/10:30pm 21.1 15.8 3.1 30 8.6 N 20 26 11 14 1014.6 - 0.0
21/10:00pm 20.9 15.7 3.4 31 8.4 N 20 24 11 13 1014.8 - 0.0
21/09:30pm 21.2 16.0 3.3 30 8.6 N 20 24 11 13 1014.8 - 0.0
21/09:00pm 21.7 16.6 3.2 29 8.9 N 19 24 10 13 1014.8 1014.4 0.0
21/08:30pm 22.7 17.5 2.7 27 9.6 N 19 22 10 12 1014.7 - 0.0
21/08:00pm 23.9 18.3 1.5 23 10.6 N 20 24 11 13 1014.5 - 0.0
21/07:30pm 24.2 18.6 1.4 22 10.8 N 20 24 11 13 1014.5 - 0.0
21/07:00pm 24.4 19.0 1.4 22 10.9 N 19 22 10 12 1014.4 - 0.0
21/06:30pm 25.2 20.0 0.4 19 11.6 N 17 20 9 11 1014.2 - 0.0
21/06:00pm 26.0 20.4 0.2 18 12.1 NNW 19 20 10 11 1014.0 1013.6 0.0

Other Formats:

Comma delimited format used in spreadsheet applications
http://www.bom.gov.au/fwo/IDS60801/IDS60801.94659.axf

JavaScript Object Notation format (JSON) in row-major order
http://www.bom.gov.au/fwo/IDS60801/IDS60801.94659.json